Regional Weather Roundup
Issued by NWS Kansas City/Pleasant Hill, MO

Home | Current Version | Previous Version | Text Only | Print | Product List | Glossary On
Versions: 1 2 3 4 5 6 7 8 9 10 11 12 13 14 15 16 17 18 19 20 21 22 23 24 25 26 27 28 29 30 31 32 33 34 35 36 37 38 39 40 41 42 43 44 45 46 47 48 49 50
000
ASUS43 KEAX 200911
RWREAX

WEATHER ROUNDUP FOR EASTERN KANSAS AND NORTHWEST MISSOURI
NATIONAL WEATHER SERVICE KANSAS CITY/PLEASANT HILL MO
400 AM CDT MON OCT 20 2014

KSZ040-057-103>105-MOZ028-029-037-043-201000-
...KANSAS CITY METROPOLITAN AREA...

CITY           SKY/WX    TMP DP  RH WIND       PRES   REMARKS
K.C. INTL      CLEAR     52  50  93 SW8       29.99F
K.C. DOWNTOWN  CLEAR     55  50  83 CALM      29.99F
LEES SUMMIT    CLEAR     54  51  90 SW7       30.00F
OLATHE - IXD   CLEAR     52  50  93 CALM      30.01F
OLATHE - OJC   CLEAR     54  52  93 W5        30.00F
LAWRENCE       CLEAR     48  46  93 NW3       30.01F

$$

MOZ001>008-011>017-020>025-030>033-038>040-044>046-053-054-201000-
...NORTHERN AND CENTRAL MISSOURI...

CITY           SKY/WX    TMP DP  RH WIND       PRES   REMARKS
ST. JOSEPH     CLEAR     44  42  93 CALM      29.99F
MOSBY          SUNNY     46  45  93 CALM      29.99S
WHITEMAN AFB   CLEAR     55  51  88 W6        29.99F
CLINTON        CLEAR     54  52  94 SW3       30.01F
SEDALIA        PTCLDY    54  50  86 SW7       30.00F
WARSAW         NOT AVBL
MARSHALL       CLEAR     55  54  94 SW3       29.99F
CHILLICOTHE      N/A     54  49  83 CALM      29.97F
MOBERLY        CLEAR     54  48  82 SW8       29.97F
KIRKSVILLE     CLEAR     54  50  86 W8        29.95S

$$

MOZ041-047>049-056>058-063>065-088>090-097-201000-
...EASTERN AND SOUTHERN MISSOURI...

CITY           SKY/WX    TMP DP  RH WIND       PRES   REMARKS
ST. LOUIS INTL MOCLDY    57  47  69 SW6       29.98F
SPIRIT OF STL  MOCLDY    56  47  71 SW7       29.98F
COLUMBIA       CLEAR     50  48  93 SW6       29.99F
JEFFERSON CITY CLEAR     50  47  89 CALM      30.00F
MEXICO         CLEAR     55  55 100 SW7       29.97F
HANNIBAL         N/A     55  48  76 SW9       29.94S
ROLLA          CLEAR     50  45  83 SW9       30.00F
LEBANON        PTCLDY    57  50  77 W8        30.03S
OSAGE BEACH    PTCLDY    48  45  87 CALM      30.01F
SPRINGFIELD    CLOUDY    54  50  86 S6        30.03F
BRANSON        CLOUDY    55  48  76 CALM      30.06R
NEVADA         PTCLDY    55  52  88 SW5       30.03S
JOPLIN         CLOUDY    58  53  84 SW9       30.04F
WEST PLAINS    CLOUDY    53  47  79 SW5       30.05F

$$

IAZ060-094-KSZ022-034>040-054-083-096-NEZ052-066-093-201000-
...KANSAS...SOUTHEAST NEBRASKA AND IOWA...

CITY           SKY/WX    TMP DP  RH WIND       PRES   REMARKS
TOPEKA         FOG       49  48  97 CALM      30.01F VSB 1/2
MANHATTAN      CLEAR     46  45  96 CALM      30.01F FOG
EMPORIA        CLEAR     53  52  96 S3        30.01F
CHANUTE        CLOUDY    58  54  86 S7        30.02F
WICHITA        PTCLDY    58  54  86 SE5       30.00F
OMAHA          CLEAR     47  45  93 NW7       29.98S
LINCOLN        CLEAR     48  44  86 CALM      30.01S
FALLS CITY     CLEAR     52  48  86 W6        29.98F
LAMONI         CLEAR     52  47  83 W10       29.95S
DES MOINES     CLEAR     52  45  77 N8        29.94S

$$



USA.gov is the U.S. government's official web portal to all federal, state and local government web resources and services.